Waarnemingen

Advertentie
Mijn weer
Nancy/Ochey, Frankrijk (7181): temperatuur & dauwpunt: 22.02.2017 10:00:00 - 28.02.2017 10:00:00 (CET)Nancy/Ochey, Frankrijk (7181): temperatuur 5cm: 22.02.2017 10:00:00 - 28.02.2017 10:00:00 (CET)Nancy/Ochey, Frankrijk (7181): temperatuur -20cm & temperatuur -100cm: 22.02.2017 10:00:00 - 28.02.2017 10:00:00 (CET)Nancy/Ochey, Frankrijk (7181): windsnelheid & windstoten: 22.02.2017 10:00:00 - 28.02.2017 10:00:00 (CET)Nancy/Ochey, Frankrijk (7181): windrichting: 22.02.2017 10:00:00 - 28.02.2017 10:00:00 (CET)Nancy/Ochey, Frankrijk (7181): luchtdruk: 22.02.2017 10:00:00 - 28.02.2017 10:00:00 (CET)Nancy/Ochey, Frankrijk (7181): zicht: 22.02.2017 10:00:00 - 28.02.2017 10:00:00 (CET)Nancy/Ochey, Frankrijk (7181): neerslag: 22.02.2017 10:00:00 - 28.02.2017 10:00:00 (CET)
Datum & Tijd tt [°C] td [°C] tt 5cm [°C] tt -20cm [°C] tt -100cm [°C] ff [km/u] ff [kn] fx [km/u] fx [kn] dd ppp [hPa] vv [km] rr [mm]
28.02.2017 10:00:00 5,6 2,1 6,2 6,3 6,4 27 14 44 24 Z 997,3 60 0,0
28.02.2017 09:00:00 5,1 1,6 3,8 6,3 6,4 29 16 42 23 Z 998,2 46 0,0
28.02.2017 08:00:00 4,1 1,1 2,6 6,4 6,4 26 14 44 24 Z 998,7 60 0,0
28.02.2017 07:00:00 3,6 1,0 2,6 6,4 6,4 29 16 53 29 ZZW 998,6 60 0,0
28.02.2017 06:00:00 4,1 1,6 3,4 6,4 6,4 32 18 53 28 ZZW 999,0 60 0,0
28.02.2017 05:00:00 4,4 1,8 3,8 6,4 6,4 31 17 50 27 ZW 998,5 60 0,0
28.02.2017 04:00:00 4,5 2,2 4,0 6,4 6,4 31 17 45 24 ZZW 998,1 60 0,0
28.02.2017 03:00:00 4,6 2,3 4,0 6,4 6,4 32 17 45 25 ZW 998,1 60 0,0
28.02.2017 02:00:00 4,5 2,7 3,7 6,4 6,4 30 16 51 27 ZW 997,7 60 0,0
28.02.2017 01:00:00 4,3 2,3 3,2 6,4 6,4 35 19 55 30 ZZW 998,0 60 0,0
28.02.2017 00:00:00 4,1 2,8 3,4 6,4 6,4 30 16 48 26 ZW 999,2 15 2,4
27.02.2017 23:00:00 4,3 3,3 3,6 6,4 6,4 28 15 56 31 WZW 999,6 13 2,6
27.02.2017 22:00:00 6,7 5,3 5,9 6,4 6,4 33 18 61 33 WZW 998,9 8 0,8
27.02.2017 21:00:00 7,3 4,4 5,8 6,3 6,4 38 21 71 38 ZZW 997,8 60 1,2
27.02.2017 20:00:00 7,3 5,6 6,1 6,2 6,4 54 29 91 49 ZW 998,8 8 5,3
27.02.2017 19:00:00 12,0 6,5 9,3 6,2 6,3 48 26 74 40 ZZW 997,0 17 0,0
27.02.2017 18:00:00 12,1 5,7 10,5 6,2 6,4 36 20 57 31 Z 997,2 35 0,0
27.02.2017 17:00:00 12,0 4,2 11,8 6,1 6,4 35 19 56 31 Z 998,6 53 0,0
27.02.2017 16:00:00 11,9 4,4 11,1 6,1 6,4 36 19 59 32 Z 1000,2 27 0,0
27.02.2017 15:00:00 11,2 3,9 11,2 6,0 6,4 32 17 51 28 Z 1001,6 48 0,0
27.02.2017 14:00:00 11,0 3,8 11,2 6,0 6,4 33 18 53 28 ZZW 1003,1 53 0,0
27.02.2017 13:00:00 10,9 4,4 11,4 6,0 6,4 24 13 50 27 ZZW 1004,4 10 0,0
27.02.2017 12:00:00 10,9 4,1 11,2 6,0 6,4 35 19 60 33 ZZW 1005,8 60 0,0
27.02.2017 11:00:00 10,3 4,4 11,2 5,9 6,4 36 19 51 28 ZZW 1007,1 49 0,0
27.02.2017 10:00:00 10,0 4,8 12,2 5,9 6,4 25 13 34 19 Z 1008,0 47 0,0
27.02.2017 09:00:00 8,5 4,3 7,0 5,9 6,4 9 5 23 12 Z 1008,8 46 0,0
27.02.2017 08:00:00 7,8 3,8 6,7 5,9 6,4 15 8 35 19 Z 1009,4 60 0,0
27.02.2017 07:00:00 9,4 3,8 8,8 5,9 6,4 24 13 38 20 ZZW 1009,5 60 0,0
27.02.2017 06:00:00 9,5 3,9 8,9 5,9 6,4 21 11 35 19 ZZW 1010,2 60 0,0
27.02.2017 05:00:00 9,5 4,3 8,9 5,9 6,4 22 12 33 18 ZZW 1010,8 60 0,0
27.02.2017 04:00:00 9,5 4,7 8,8 5,8 6,4 18 10 31 17 ZZW 1011,6 60 0,0
27.02.2017 03:00:00 9,7 5,1 8,7 5,8 6,4 22 12 28 15 ZZW 1012,5 60 0,0
27.02.2017 02:00:00 9,4 5,4 8,7 5,7 6,4 20 11 27 15 ZZW 1013,0 60 0,0
27.02.2017 01:00:00 9,6 5,6 9,0 5,7 6,4 15 8 28 15 ZZW 1013,6 60 0,0
27.02.2017 00:00:00 9,8 6,0 9,2 5,7 6,4 20 11 29 16 Z 1014,0 60 0,0
26.02.2017 23:00:00 9,8 6,1 9,0 5,6 6,4 21 12 34 19 ZZW 1014,5 60 0,0
26.02.2017 22:00:00 9,5 6,0 8,9 5,6 6,4 20 11 30 16 ZZW 1014,9 60 0,0
26.02.2017 21:00:00 9,7 5,9 9,1 5,5 6,4 17 9 38 20 ZW 1015,6 56 0,0
26.02.2017 20:00:00 9,6 5,8 9,1 5,5 6,4 21 11 29 15 ZZW 1015,7 59 0,0
26.02.2017 19:00:00 9,8 5,2 9,3 5,4 6,4 19 10 27 15 ZW 1015,8 55 0,0
26.02.2017 18:00:00 10,4 4,7 10,0 5,4 6,4 19 10 34 18 WZW 1015,4 53 0,0
26.02.2017 17:00:00 11,6 4,1 11,6 5,3 6,4 19 10 33 18 ZW 1015,1 58 0,0
26.02.2017 16:00:00 12,3 2,7 12,7 5,3 6,4 23 12 46 25 ZW 1015,1 47 0,0
26.02.2017 15:00:00 13,2 0,2 16,0 5,3 6,4 24 13 40 22 ZW 1014,9 28 0,0
26.02.2017 14:00:00 12,8 0,8 13,4 5,2 6,4 24 13 39 21 ZW 1015,5 25 0,0
26.02.2017 13:00:00 11,4 1,6 11,0 5,2 6,4 28 15 40 22 ZZW 1016,3 26 0,0
26.02.2017 12:00:00 10,0 1,1 8,7 5,3 6,4 31 17 43 23 ZZW 1017,3 20 0,0
26.02.2017 11:00:00 7,9 1,1 6,9 5,3 6,4 26 14 36 19 ZW 1018,3 20 0,0
26.02.2017 10:00:00 6,1 0,2 5,6 5,4 6,4 14 8 26 14 Z 1018,3 35 0,0
26.02.2017 09:00:00 5,3 -0,1 4,2 5,4 6,4 19 11 29 15 Z 1018,1 38 0,0
26.02.2017 08:00:00 4,6 -0,6 3,3 5,4 6,4 12 6 19 10 Z 1018,2 40 0,0
26.02.2017 07:00:00 4,4 -0,8 3,4 5,5 6,4 11 6 19 11 Z 1017,9 43 0,0
26.02.2017 06:00:00 4,5 -1,1 2,9 5,5 6,4 13 7 20 11 Z 1017,8 48 0,0
26.02.2017 05:00:00 4,2 -1,2 0,8 5,5 6,4 11 6 16 9 ZZW 1018,1 48 0,0
26.02.2017 04:00:00 2,1 -2,2 -0,8 5,6 6,4 6 3 11 6 Z 1019,0 44 0,0
26.02.2017 03:00:00 4,3 -2,1 1,3 5,6 6,4 2 1 16 8 WNW 1018,8 56 0,0
26.02.2017 02:00:00 3,8 -3,0 -0,5 5,6 6,4 11 6 15 8 Z 1018,9 58 0,0
26.02.2017 01:00:00 4,0 -2,0 1,9 5,6 6,4 14 7 20 11 Z 1019,0 57 0,0
26.02.2017 00:00:00 5,4 -1,8 3,4 5,6 6,4 16 9 24 13 ZZW 1019,1 60 0,0
25.02.2017 23:00:00 5,1 -2,0 -1,7 5,6 6,4 16 9 21 11 Z 1019,6 60 0,0
25.02.2017 22:00:00 3,8 -1,6 1,0 5,6 6,4 8 4 14 8 ZZW 1020,3 56 0,0
25.02.2017 21:00:00 4,3 -0,1 0,4 5,6 6,4 12 6 14 8 Z 1020,1 56 0,0
25.02.2017 20:00:00 4,4 0,0 -1,2 5,6 6,4 8 5 9 5 ZZO 1020,7 59 0,0
25.02.2017 19:00:00 5,4 0,0 -0,4 5,5 6,4 3 1 9 5 W 1020,8 38 0,0
25.02.2017 18:00:00 6,9 1,4 2,7 5,5 6,3 5 3 9 5 O 1020,2 56 0,0
25.02.2017 17:00:00 8,6 0,1 8,9 5,4 6,4 8 5 19 10 ZW 1020,3 22 0,0
25.02.2017 16:00:00 9,3 0,2 9,6 5,4 6,3 14 8 21 11 ZW 1020,4 57 0,0
25.02.2017 15:00:00 9,1 -1,1 12,2 5,4 6,3 16 9 22 12 ZW 1021,4 55 0,0
25.02.2017 14:00:00 8,7 2,5 9,5 5,4 6,3 8 4 14 8 ZW 1022,1 50 0,0
25.02.2017 13:00:00 7,1 3,0 8,9 5,5 6,3 7 4 19 10 ZZO 1023,0 19 0,0
25.02.2017 12:00:00 6,3 3,3 7,4 5,5 6,3 3 1 9 5 ZW 1023,7 19 0,0
25.02.2017 11:00:00 3,6 3,0 5,5 5,6 6,3 6 3 8 5 ZO 1024,4 11 0,0
25.02.2017 10:00:00 1,3 1,3 0,1 5,7 6,3 0 0 5 3 N 1024,9 0,3 0,0
25.02.2017 09:00:00 -2,1 -2,1 -3,9 5,8 6,3 0 0 6 3 N 1025,3 0,3 0,0
25.02.2017 08:00:00 -2,6 -2,6 -3,7 5,9 6,3 0 0 10 6 N 1024,6 0,2 0,0
25.02.2017 07:00:00 -1,9 -1,9 -3,2 5,9 6,3 5 3 10 5 ZZO 1024,1 0,1 0,0
25.02.2017 06:00:00 -2,0 -2,0 -7,5 6,0 6,3 6 3 8 4 OZO 1024,0 0,2 0,0
25.02.2017 05:00:00 -2,1 -2,1 -7,1 6,1 6,3 5 3 9 5 ZZO 1023,9 0,1 0,0
25.02.2017 04:00:00 -1,9 -1,9 -6,9 6,1 6,3 4 2 7 4 ZW 1023,7 0,8 0,0
25.02.2017 03:00:00 -1,3 -1,3 -7,2 6,2 6,3 5 3 8 4 ZZO 1023,7 4,2 0,0
25.02.2017 02:00:00 -0,8 -0,8 -4,8 6,2 6,3 6 3 9 5 ZZW 1024,0 6 0,0
25.02.2017 01:00:00 -0,7 -0,8 -5,3 6,2 6,3 4 2 9 5 ZW 1023,8 4,6 0,0
25.02.2017 00:00:00 -0,4 -0,5 -4,5 6,3 6,3 8 5 10 5 ZZW 1023,4 9 0,0
24.02.2017 23:00:00 -0,1 -0,5 -4,8 6,3 6,3 5 3 8 5 ZW 1023,3 12 0,0
24.02.2017 22:00:00 0,5 0,1 -4,6 6,3 6,3 6 3 8 4 ZW 1022,6 17 0,0
24.02.2017 21:00:00 0,5 0,2 -3,5 6,3 6,2 7 4 10 5 Z 1021,9 19 0,0
24.02.2017 20:00:00 0,5 0,1 -3,2 6,3 6,2 4 2 11 6 ZZW 1021,3 21 0,0
24.02.2017 19:00:00 2,0 0,7 -0,4 6,3 6,2 5 3 33 18 NNW 1020,3 59 0,0
24.02.2017 18:00:00 4,2 1,7 3,7 6,3 6,2 15 8 29 15 NW 1018,7 10 0,0
24.02.2017 17:00:00 5,1 2,1 4,4 6,3 6,2 17 9 36 20 WNW 1017,4 59 0,0
24.02.2017 16:00:00 6,0 1,3 6,1 6,3 6,2 16 9 28 15 NW 1016,2 57 0,0
24.02.2017 15:00:00 5,6 1,9 4,3 6,3 6,2 10 5 28 15 W 1015,9 60 0,0
24.02.2017 14:00:00 6,1 3,9 5,7 6,3 6,2 15 8 22 12 WZW 1015,6 49 0,0
24.02.2017 13:00:00 5,0 2,9 5,3 6,3 6,2 11 6 22 12 WNW 1015,9 53 0,0
24.02.2017 12:00:00 3,6 2,3 2,5 6,4 6,2 9 5 32 18 WZW 1016,2 18 0,6
24.02.2017 11:00:00 5,2 2,9 3,1 6,4 6,2 12 6 17 9 WZW 1015,5 44 0,0
24.02.2017 10:00:00 3,0 1,8 1,8 6,5 6,2 8 4 28 15 W 1015,4 12 1,4
24.02.2017 09:00:00 3,8 2,6 3,4 6,5 6,2 11 6 21 11 W 1014,7 19 0,0
24.02.2017 08:00:00 3,9 2,3 2,8 6,5 6,1 9 5 16 9 WZW 1014,0 40 0,0
24.02.2017 07:00:00 3,5 1,9 1,9 6,6 6,2 12 6 26 14 WZW 1013,0 20 0,0
24.02.2017 06:00:00 3,3 1,7 2,0 6,6 6,2 18 10 31 17 WZW 1012,6 42 0,0
24.02.2017 05:00:00 3,9 1,8 2,8 6,6 6,1 21 11 41 22 WZW 1011,9 44 0,0
24.02.2017 04:00:00 4,5 2,0 3,3 6,6 6,2 23 12 40 22 WZW 1011,2 43 0,0
24.02.2017 03:00:00 4,9 2,1 4,1 6,6 6,1 19 10 31 17 WZW 1010,9 45 0,0
24.02.2017 02:00:00 5,2 2,0 4,4 6,6 6,1 19 11 41 22 WZW 1010,3 50 0,0
24.02.2017 01:00:00 5,2 2,4 4,4 6,6 6,1 22 12 48 26 WZW 1009,4 48 0,0
24.02.2017 00:00:00 5,9 2,9 5,1 6,6 6,1 28 15 48 26 WZW 1008,2 53 0,0
23.02.2017 23:00:00 6,5 3,8 5,5 6,6 6,1 26 14 55 30 W 1007,2 55 0,0
23.02.2017 22:00:00 7,0 4,6 6,0 6,6 6,1 32 18 54 29 WZW 1006,4 59 0,0
23.02.2017 21:00:00 7,2 5,3 6,4 6,6 6,1 26 14 48 26 WZW 1005,8 60 0,0
23.02.2017 20:00:00 7,4 6,2 6,0 6,6 6,1 28 15 75 41 WZW 1005,3 18 2,8
23.02.2017 19:00:00 7,6 6,4 6,6 6,6 6,1 35 19 61 33 ZW 1004,5 11 0,4
23.02.2017 18:00:00 7,6 6,1 6,6 6,5 6,1 40 22 68 37 ZW 1004,2 12 0,0
23.02.2017 17:00:00 8,1 5,0 7,6 6,5 6,0 37 20 60 33 ZW 1003,9 42 0,0
23.02.2017 16:00:00 9,6 4,4 9,5 6,5 6,0 34 18 65 35 ZW 1003,6 55 0,0
23.02.2017 15:00:00 10,3 4,0 11,0 6,5 6,0 41 22 70 38 WZW 1003,7 54 0,0
23.02.2017 14:00:00 11,4 3,9 12,1 6,4 6,0 42 23 63 34 ZW 1004,1 55 0,0
23.02.2017 13:00:00 11,7 3,9 12,2 6,5 6,0 40 22 65 35 ZW 1004,7 47 0,0
23.02.2017 12:00:00 9,9 5,3 9,8 6,4 6,0 37 20 51 28 ZZW 1005,9 56 0,0
23.02.2017 11:00:00 8,2 5,0 7,9 6,5 6,0 27 15 43 23 ZW 1007,5 58 0,0
23.02.2017 10:00:00 6,9 4,6 6,6 6,5 6,0 28 15 40 22 ZW 1008,5 30 0,0
23.02.2017 09:00:00 6,4 4,2 6,1 6,5 6,0 21 11 39 21 ZW 1009,4 28 0,0
23.02.2017 08:00:00 6,3 4,0 6,1 6,5 6,0 24 13 35 19 ZZW 1010,1 28 0,0
23.02.2017 07:00:00 6,5 4,2 6,2 6,5 6,0 24 13 44 24 ZW 1010,7 27 0,0
23.02.2017 06:00:00 7,0 4,0 6,6 6,5 6,0 28 15 39 21 ZW 1011,5 26 0,0
23.02.2017 05:00:00 7,3 4,6 6,9 6,5 6,0 21 11 36 19 ZW 1012,4 28 0,0
23.02.2017 04:00:00 7,4 4,9 7,1 6,5 6,0 23 12 39 21 ZW 1013,1 28 0,0
23.02.2017 03:00:00 7,6 5,1 7,0 6,5 5,9 24 13 47 26 ZW 1013,8 27 0,0
23.02.2017 02:00:00 7,4 5,9 7,0 6,5 5,9 27 14 52 28 ZW 1014,6 20 0,0
23.02.2017 01:00:00 7,3 5,6 6,7 6,6 5,9 31 17 48 26 WZW 1015,1 25 0,0
23.02.2017 00:00:00 7,8 5,4 7,3 6,5 5,9 34 18 55 30 ZW 1014,9 29 0,0
22.02.2017 23:00:00 7,9 5,5 7,5 6,5 5,9 38 21 53 29 ZW 1015,2 29 0,0
22.02.2017 22:00:00 7,9 5,5 7,3 6,5 5,9 34 18 49 26 ZW 1015,9 25 0,0
22.02.2017 21:00:00 7,7 5,7 7,1 6,5 5,9 36 19 51 28 ZW 1015,8 20 0,0
22.02.2017 20:00:00 7,5 6,3 7,0 6,5 5,9 37 20 55 30 ZW 1016,0 19 0,0
22.02.2017 19:00:00 7,5 6,3 7,2 6,5 5,9 35 19 55 30 ZW 1016,4 19 0,0
22.02.2017 18:00:00 7,6 6,2 7,3 6,5 5,9 39 21 58 32 ZW 1016,0 41 0,0
22.02.2017 17:00:00 7,9 6,2 7,8 6,5 5,9 40 22 56 31 ZW 1015,7 20 0,0
22.02.2017 16:00:00 8,3 6,3 8,5 6,4 5,9 38 21 53 29 ZW 1016,5 42 0,0
22.02.2017 15:00:00 8,6 6,4 8,8 6,4 5,9 34 19 58 31 WZW 1016,6 51 0,0
22.02.2017 14:00:00 9,0 6,4 8,9 6,4 5,9 35 19 52 28 ZW 1016,6 47 0,0
22.02.2017 13:00:00 8,7 6,7 8,0 6,4 5,9 37 20 51 28 ZW 1017,2 19 0,0
22.02.2017 12:00:00 8,3 6,8 7,5 6,4 5,9 30 16 48 26 WZW 1018,0 15 0,0
22.02.2017 11:00:00 8,1 6,6 7,6 6,4 5,8 29 15 45 24 WZW 1017,9 13 0,0
22.02.2017 10:00:00 8,0 7,1 7,4 6,4 5,8 31 17 43 23 ZW 1017,9 11 0,2

tt = temperatuur
td = dauwpunt
tt 5cm = temperatuur 5cm
tt -20cm = temperatuur -20cm
tt -100cm = temperatuur -100cm
ff = windsnelheid
fx = windstoten
dd = windrichting
ppp = luchtdruk
vv = zicht
rr = neerslag

Weerstations in de omgeving